| time (UTC) | temp C | wind direction | speed KPH | gust KPH | rain 1hr cm | rain 24hr cm | rain mn cm | humidity % | barometer mb |
| 20260506231858 | 26 | 128 | 4.8 | 14.5 | 0.00 | 0.00 | 0.00 | 25 | 1016.4 |
| 20260506231457 | 26 | 168 | 3.2 | 14.5 | 0.00 | 0.00 | 0.00 | 25 | 1016.4 |
| 20260506231056 | 27 | 135 | 12.9 | 17.7 | 0.00 | 0.00 | 0.00 | 24 | 1016.4 |
| 20260506230655 | 27 | 112 | 4.8 | 17.7 | 0.00 | 0.00 | 0.00 | 24 | 1016.4 |
| 20260506230254 | 27 | 155 | 12.9 | 14.5 | 0.00 | 0.00 | 0.00 | 24 | 1016.5 |
| 20260506225852 | 28 | 216 | 6.4 | 16.1 | 0.00 | 0.00 | 0.00 | 25 | 1016.5 |
| 20260506225049 | 29 | 151 | 1.6 | 11.3 | 0.00 | 0.00 | 0.00 | 24 | 1016.6 |
| 20260506224649 | 29 | 144 | 4.8 | 16.1 | 0.00 | 0.00 | 0.00 | 24 | 1016.5 |
| 20260506224249 | 28 | 172 | 6.4 | 14.5 | 0.00 | 0.00 | 0.00 | 24 | 1016.6 |
| 20260506223846 | 28 | 187 | 8.0 | 16.1 | 0.00 | 0.00 | 0.00 | 24 | 1016.7 |
| 20260506223444 | 28 | 139 | 12.9 | 17.7 | 0.00 | 0.00 | 0.00 | 24 | 1016.7 |
| 20260506222642 | 29 | 182 | 6.4 | 16.1 | 0.00 | 0.00 | 0.00 | 24 | 1017.0 |
| 20260506221839 | 29 | 120 | 4.8 | 16.1 | 0.00 | 0.00 | 0.00 | 24 | 1017.1 |
| 20260506221439 | 29 | 186 | 12.9 | 14.5 | 0.00 | 0.00 | 0.00 | 24 | 1017.0 |
| 20260506220635 | 28 | 200 | 6.4 | 14.5 | 0.00 | 0.00 | 0.00 | 24 | 1017.1 |
| 20260506220234 | 28 | 168 | 3.2 | 14.5 | 0.00 | 0.00 | 0.00 | 24 | 1017.1 |
| 20260506215032 | 29 | 160 | 8.0 | 14.5 | 0.00 | 0.00 | 0.00 | 25 | 1017.3 |
| 20260506214629 | 29 | 45 | 4.8 | 9.7 | 0.00 | 0.00 | 0.00 | 25 | 1017.3 |
| 20260506213827 | 29 | 177 | 11.3 | 12.9 | 0.00 | 0.00 | 0.00 | 25 | 1017.4 |
| 20260506213425 | 29 | 157 | 3.2 | 8.0 | 0.00 | 0.00 | 0.00 | 24 | 1017.5 |
| 20260506213024 | 29 | 210 | 3.2 | 11.3 | 0.00 | 0.00 | 0.00 | 24 | 1017.5 |
| 20260506212623 | 29 | 154 | 1.6 | 19.3 | 0.00 | 0.00 | 0.00 | 26 | 1017.6 |
| 20260506212221 | 29 | 157 | 8.0 | 12.9 | 0.00 | 0.00 | 0.00 | 26 | 1017.6 |
| 20260506211420 | 29 | 150 | 11.3 | 14.5 | 0.00 | 0.00 | 0.00 | 26 | 1017.6 |
| 20260506211017 | 29 | 209 | 1.6 | 11.3 | 0.00 | 0.00 | 0.00 | 26 | 1017.7 |
| 20260506210617 | 29 | 145 | 4.8 | 0.0 | 0.00 | 0.00 | 0.00 | 1017.7 | |
| 20260506210217 | 29 | 207 | 9.7 | 12.9 | 0.00 | 0.00 | 0.00 | 26 | 1017.7 |
| 20260506205412 | 29 | 157 | 6.4 | 12.9 | 0.00 | 0.00 | 0.00 | 26 | 1017.8 |
| 20260506205011 | 29 | 0 | 4.8 | 14.5 | 0.00 | 0.00 | 0.00 | 26 | 1017.8 |
| 20260506204610 | 28 | 137 | 9.7 | 12.9 | 0.00 | 0.00 | 0.00 | 26 | 1017.8 |
| 20260506204209 | 28 | 163 | 8.0 | 16.1 | 0.00 | 0.00 | 0.00 | 27 | 1017.9 |
| 20260506203807 | 28 | 135 | 16.1 | 16.1 | 0.00 | 0.00 | 0.00 | 27 | 1017.9 |
| 20260506202603 | 29 | 135 | 9.7 | 11.3 | 0.00 | 0.00 | 0.00 | 27 | 1017.9 |
| 20260506202203 | 28 | 182 | 8.0 | 11.3 | 0.00 | 0.00 | 0.00 | 27 | 1018.0 |
| 20260506201400 | 27 | 132 | 11.3 | 11.3 | 0.00 | 0.00 | 0.00 | 27 | 1018.2 |
| 20260506200958 | 27 | 186 | 8.0 | 19.3 | 0.00 | 0.00 | 0.00 | 27 | 1018.3 |
| 20260506200155 | 26 | 160 | 1.6 | 17.7 | 0.00 | 0.00 | 0.00 | 27 | 1018.3 |
| 20260506195754 | 25 | 135 | 6.4 | 19.3 | 0.00 | 0.00 | 0.00 | 27 | 1018.4 |
| 20260506195358 | 26 | 85 | 16.1 | 17.7 | 0.00 | 0.00 | 0.00 | 27 | 1018.3 |
| 20260506194550 | 25 | 135 | 16.1 | 29.0 | 0.00 | 0.00 | 0.00 | 27 | 1018.3 |
| 20260506194149 | 25 | 135 | 16.1 | 16.1 | 0.00 | 0.00 | 0.00 | 27 | 1018.4 |
| 20260506193748 | 25 | 146 | 17.7 | 19.3 | 0.00 | 0.00 | 0.00 | 27 | 1018.4 |
| 20260506193347 | 26 | 137 | 9.7 | 25.7 | 0.00 | 0.00 | 0.00 | 26 | 1018.5 |
| 20260506192143 | 28 | 117 | 9.7 | 17.7 | 0.00 | 0.00 | 0.00 | 26 | 1018.6 |
| 20260506191745 | 28 | 135 | 9.7 | 11.3 | 0.00 | 0.00 | 0.00 | 25 | 1018.5 |
| 20260506190939 | 29 | 270 | 4.8 | 6.4 | 0.00 | 0.00 | 0.00 | 26 | 1018.8 |
| 20260506190539 | 28 | 174 | 1.6 | 9.7 | 0.00 | 0.00 | 0.00 | 26 | 1018.8 |
| 20260506190136 | 28 | 216 | 6.4 | 9.7 | 0.00 | 0.00 | 0.00 | 26 | 1018.8 |
| 20260506185734 | 27 | 270 | 6.4 | 6.4 | 0.00 | 0.00 | 0.00 | 26 | 1018.8 |
| 20260506184531 | 27 | 41 | 6.4 | 9.7 | 0.00 | 0.00 | 0.00 | 26 | 1018.8 |
| 20260506183729 | 28 | 279 | 9.7 | 12.9 | 0.00 | 0.00 | 0.00 | 26 | 1018.9 |
| 20260506183327 | 28 | 245 | 4.8 | 17.7 | 0.00 | 0.00 | 0.00 | 26 | 1018.9 |
| 20260506182926 | 27 | 270 | 4.8 | 12.9 | 0.00 | 0.00 | 0.00 | 27 | 1019.0 |
| 20260506182525 | 27 | 90 | 3.2 | 14.5 | 0.00 | 0.00 | 0.00 | 27 | 1018.9 |
| 20260506182124 | 26 | 153 | 11.3 | 14.5 | 0.00 | 0.00 | 0.00 | 27 | 1019.0 |
| 20260506180521 | 26 | 236 | 6.4 | 11.3 | 0.00 | 0.00 | 0.00 | 27 | 1019.0 |
| 20260506180120 | 25 | 267 | 11.3 | 14.5 | 0.00 | 0.00 | 0.00 | 27 | 1019.1 |
| 20260506175716 | 23 | 292 | 12.9 | 16.1 | 0.00 | 0.00 | 0.00 | 27 | 1019.1 |
| 20260506175318 | 24 | 6 | 14.5 | 16.1 | 0.00 | 0.00 | 0.00 | 27 | 1019.1 |
| 20260506174515 | 24 | 40 | 1.6 | 14.5 | 0.00 | 0.00 | 0.00 | 28 | 1019.2 |
| 20260506173709 | 23 | 28 | 8.0 | 16.1 | 0.00 | 0.00 | 0.00 | 28 | 1019.3 |
| 20260506173313 | 23 | 28 | 6.4 | 16.1 | 0.00 | 0.00 | 0.00 | 28 | 1019.2 |
| 20260506173311 | 23 | 28 | 6.4 | 16.1 | 0.00 | 0.00 | 0.00 | 28 | 1019.2 |
| 20260506172907 | 23 | 25 | 4.8 | 12.9 | 0.00 | 0.00 | 0.00 | 28 | 1019.2 |
| 20260506172506 | 23 | 182 | 1.6 | 4.8 | 0.00 | 0.00 | 0.00 | 29 | 1019.2 |
| 20260506172107 | 23 | 355 | 6.4 | 11.3 | 0.00 | 0.00 | 0.00 | 29 | 1019.1 |
| 20260506171301 | 25 | 140 | 4.8 | 4.8 | 0.00 | 0.00 | 0.00 | 30 | 1019.1 |
| 20260506170900 | 25 | 182 | 0.0 | 3.2 | 0.00 | 0.00 | 0.00 | 30 | 1019.2 |
| 20260506170503 | 25 | 299 | 1.6 | 3.2 | 0.00 | 0.00 | 0.00 | 31 | 1019.2 |
| 20260506165656 | 24 | 249 | 4.8 | 4.8 | 0.00 | 0.00 | 0.00 | 32 | 1019.1 |
| 20260506165256 | 24 | 310 | 0.0 | 4.8 | 0.00 | 0.00 | 0.00 | 33 | 1019.0 |
| 20260506163658 | 22 | 27 | 4.8 | 6.4 | 0.00 | 0.00 | 0.00 | 35 | 1019.1 |
| 20260506163251 | 22 | 81 | 4.8 | 8.0 | 0.00 | 0.00 | 0.00 | 35 | 1019.1 |
| 20260506162854 | 22 | 121 | 6.4 | 8.0 | 0.00 | 0.00 | 0.00 | 36 | 1019.1 |
| 20260506162446 | 22 | 177 | 1.6 | 8.0 | 0.00 | 0.00 | 0.00 | 37 | 1019.1 |
| 20260506162058 | 21 | 135 | 6.4 | 11.3 | 0.00 | 0.00 | 0.00 | 37 | 1019.1 |
| 20260506161649 | 22 | 135 | 11.3 | 11.3 | 0.00 | 0.00 | 0.00 | 38 | 1019.1 |
| 20260506160842 | 22 | 211 | 1.6 | 8.0 | 0.00 | 0.00 | 0.00 | 40 | 1019.2 |
| 20260506160441 | 22 | 122 | 4.8 | 4.8 | 0.00 | 0.00 | 0.00 | 40 | 1019.2 |
| 20260506155637 | 21 | 150 | 1.6 | 8.0 | 0.00 | 0.00 | 0.00 | 42 | 1019.3 |
| 20260506155237 | 21 | 135 | 4.8 | 4.8 | 0.00 | 0.00 | 0.00 | 43 | 1019.3 |
| 20260506154835 | 20 | 300 | 0.0 | 6.4 | 0.00 | 0.00 | 0.00 | 44 | 1019.2 |
| 20260506154512 | 20 | 339 | 1.6 | 4.8 | 0.00 | 0.00 | 0.00 | 45 | 1019.3 |
| 20260506154433 | 20 | 339 | 1.6 | 4.8 | 0.00 | 0.00 | 0.00 | 45 | 1019.3 |
| 20260506154032 | 19 | 135 | 1.6 | 8.0 | 0.00 | 0.00 | 0.00 | 45 | 1019.4 |
| 20260506153631 | 19 | 117 | 8.0 | 8.0 | 0.00 | 0.00 | 0.00 | 46 | 1019.3 |
| 20260506153229 | 19 | 109 | 0.0 | 4.8 | 0.00 | 0.00 | 0.00 | 47 | 1019.4 |
| 20260506152427 | 19 | 182 | 0.0 | 1.6 | 0.00 | 0.00 | 0.00 | 49 | 1019.4 |
| 20260506152025 | 19 | 135 | 3.2 | 4.8 | 0.00 | 0.00 | 0.00 | 50 | 1019.5 |
| 20260506151223 | 18 | 112 | 1.6 | 3.2 | 0.00 | 0.00 | 0.00 | 52 | 1019.5 |
| 20260506151016 | 18 | 321 | 0.0 | 1.6 | 0.00 | 0.00 | 0.00 | 52 | 1019.5 |
| 20260506150822 | 18 | 321 | 0.0 | 1.6 | 0.00 | 0.00 | 0.00 | 52 | 1019.5 |
| 20260506150424 | 18 | 78 | 0.0 | 1.6 | 0.00 | 0.00 | 0.00 | 53 | 1019.5 |
| 20260506145617 | 17 | 225 | 0.0 | 1.6 | 0.00 | 0.00 | 0.00 | 54 | 1019.4 |
| 20260506145218 | 17 | 232 | 0.0 | 1.6 | 0.00 | 0.00 | 0.00 | 55 | 1019.5 |
| 20260506144046 | 15 | 315 | 0.0 | 0.0 | 0.00 | 0.00 | 0.00 | 56 | 1019.5 |
| 20260506144013 | 15 | 315 | 0.0 | 0.0 | 0.00 | 0.00 | 0.00 | 56 | 1019.5 |
| 20260506143613 | 15 | 166 | 0.0 | 0.0 | 0.00 | 0.00 | 0.00 | 57 | 1019.5 |
| 20260506142808 | 14 | 310 | 0.0 | 0.0 | 0.00 | 0.00 | 0.00 | 58 | 1019.5 |
| 20260506142411 | 13 | 279 | 0.0 | 1.6 | 0.00 | 0.00 | 0.00 | 58 | 1019.5 |
| 20260506142006 | 13 | 288 | 1.6 | 1.6 | 0.00 | 0.00 | 0.00 | 58 | 1019.4 |
| 20260506141605 | 12 | 279 | 0.0 | 1.6 | 0.00 | 0.00 | 0.00 | 58 | 1019.5 |
| 20260506141204 | 11 | 297 | 0.0 | 1.6 | 0.00 | 0.00 | 0.00 | 58 | 1019.4 |
| 20260506140802 | 11 | 30 | 1.6 | 1.6 | 0.00 | 0.00 | 0.00 | 58 | 1019.3 |
| 20260506140000 | 10 | 42 | 0.0 | 0.0 | 0.00 | 0.00 | 0.00 | 59 | 1019.1 |
| 20260506135157 | 10 | 270 | 0.0 | 0.0 | 0.00 | 0.00 | 0.00 | 59 | 1019.2 |
| 20260506134756 | 9 | 283 | 0.0 | 0.0 | 0.00 | 0.00 | 0.00 | 59 | 1019.1 |
| 20260506134355 | 9 | 270 | 0.0 | 0.0 | 0.00 | 0.00 | 0.00 | 59 | 1019.0 |
| 20260506133552 | 8 | 274 | 0.0 | 0.0 | 0.00 | 0.00 | 0.00 | 59 | 1019.1 |
| 20260506131946 | 7 | 279 | 0.0 | 0.0 | 0.00 | 0.00 | 0.00 | 59 | 1019.0 |
| 20260506131545 | 6 | 303 | 0.0 | 0.0 | 0.00 | 0.00 | 0.00 | 59 | 1019.0 |
| 20260506130743 | 6 | 235 | 0.0 | 0.0 | 0.00 | 0.00 | 0.00 | 58 | 1018.8 |
| 20260506130343 | 7 | 135 | 0.0 | 0.0 | 0.00 | 0.00 | 0.00 | 58 | 1018.8 |
| 20260506125942 | 7 | 202 | 0.0 | 0.0 | 0.00 | 0.00 | 0.00 | 58 | 1018.7 |
| 20260506125539 | 376 | 234 | 0.0 | 1.6 | 0.00 | 0.00 | 0.00 | 58 | 1018.6 |
| 20260506124335 | 6 | 324 | 0.0 | 3.2 | 0.00 | 0.00 | 0.00 | 58 | 1018.8 |
| 20260506123938 | 6 | 346 | 3.2 | 3.2 | 0.00 | 0.00 | 0.00 | 58 | 1018.8 |
| 20260506123535 | 7 | 312 | 0.0 | 0.0 | 0.00 | 0.00 | 0.00 | 58 | 1018.6 |
| 20260506123332 | 7 | 308 | 0.0 | 0.0 | 0.00 | 0.00 | 0.00 | 58 | 1018.6 |
| 20260506123131 | 7 | 308 | 0.0 | 0.0 | 0.00 | 0.00 | 0.00 | 58 | 1018.6 |
| 20260506122730 | 7 | 288 | 0.0 | 0.0 | 0.00 | 0.00 | 0.00 | 58 | 1018.6 |
| 20260506122330 | 7 | 81 | 0.0 | 0.0 | 0.00 | 0.00 | 0.00 | 58 | 1018.5 |
| 20260506121930 | 7 | 216 | 0.0 | 0.0 | 0.00 | 0.00 | 0.00 | 58 | 1.0 |
| 20260506121529 | 7 | 237 | 0.0 | 0.0 | 0.00 | 0.00 | 0.00 | 58 | 1018.4 |
| 20260506120723 | 7 | 180 | 0.0 | 0.0 | 0.00 | 0.00 | 0.00 | 58 | 1018.4 |
| 20260506120322 | 7 | 182 | 0.0 | 1.6 | 0.00 | 0.00 | 0.00 | 58 | 1018.4 |
| 20260506115921 | 7 | 227 | 0.0 | 1.6 | 0.00 | 0.00 | 0.00 | 58 | 1018.4 |
| 20260506115520 | 7 | 274 | 0.0 | 1.6 | 0.00 | 0.00 | 0.00 | 58 | 1018.5 |
| 20260506115119 | 7 | 337 | 0.0 | 1.6 | 0.00 | 0.00 | 0.00 | 58 | 1018.4 |
| 20260506114719 | 7 | 337 | 0.0 | 0.0 | 0.00 | 0.00 | 0.00 | 58 | 1018.3 |
| 20260506114316 | 7 | 274 | 0.0 | 0.0 | 0.00 | 0.00 | 0.00 | 58 | 1018.3 |
| 20260506113915 | 7 | 274 | 0.0 | 0.0 | 0.00 | 0.00 | 0.00 | 58 | 1018.3 |
| 20260506113513 | 7 | 274 | 0.0 | 0.0 | 0.00 | 0.00 | 0.00 | 58 | 1018.2 |
| 20260506113112 | 7 | 306 | 0.0 | 0.0 | 0.00 | 0.00 | 0.00 | 58 | 1018.3 |
| 20260506112711 | 7 | 315 | 0.0 | 0.0 | 0.00 | 0.00 | 0.00 | 58 | 1018.3 |
| 20260506112310 | 7 | 306 | 0.0 | 0.0 | 0.00 | 0.00 | 0.00 | 58 | 1018.2 |
| 20260506111908 | 7 | 42 | 0.0 | 0.0 | 0.00 | 0.00 | 0.00 | 58 | 1018.2 |
| 20260506111541 | 7 | 42 | 0.0 | 0.0 | 0.00 | 0.00 | 0.00 | 58 | 1018.3 |
| 20260506111507 | 7 | 42 | 0.0 | 0.0 | 0.00 | 0.00 | 0.00 | 58 | 1018.3 |
| 20260506111142 | 7 | 310 | 0.0 | 0.0 | 0.00 | 0.00 | 0.00 | 58 | 1018.3 |
| 20260506111106 | 7 | 310 | 0.0 | 0.0 | 0.00 | 0.00 | 0.00 | 58 | 1018.3 |
| 20260506110705 | 7 | 301 | 0.0 | 0.0 | 0.00 | 0.00 | 0.00 | 58 | 1018.3 |
| 20260506110303 | 7 | 228 | 0.0 | 0.0 | 0.00 | 0.00 | 0.00 | 58 | 1018.3 |
| 20260506105902 | 7 | 231 | 0.0 | 0.0 | 0.00 | 0.00 | 0.00 | 58 | 1018.3 |
| 20260506105500 | 7 | 342 | 0.0 | 0.0 | 0.00 | 0.00 | 0.00 | 57 | 1018.4 |
| 20260506104658 | 7 | 232 | 0.0 | 0.0 | 0.00 | 0.00 | 0.00 | 57 | 1018.3 |
| 20260506104257 | 7 | 227 | 0.0 | 0.0 | 0.00 | 0.00 | 0.00 | 57 | 1018.3 |
| 20260506103856 | 7 | 230 | 0.0 | 0.0 | 0.00 | 0.00 | 0.00 | 57 | 1018.3 |
| 20260506103053 | 7 | 306 | 0.0 | 0.0 | 0.00 | 0.00 | 0.00 | 57 | 1018.3 |
| 20260506102651 | 7 | 306 | 0.0 | 0.0 | 0.00 | 0.00 | 0.00 | 57 | 1018.4 |
| 20260506102250 | 8 | 306 | 0.0 | 0.0 | 0.00 | 0.00 | 0.00 | 57 | 1018.4 |
| 20260506101451 | 8 | 315 | 0.0 | 0.0 | 0.00 | 0.00 | 0.00 | 57 | 1018.3 |
| 20260506100645 | 8 | 315 | 0.0 | 0.0 | 0.00 | 0.00 | 0.00 | 57 | 1018.3 |
| 20260506100244 | 8 | 274 | 0.0 | 0.0 | 0.00 | 0.00 | 0.00 | 57 | 1018.3 |
| 20260506095843 | 8 | 231 | 0.0 | 0.0 | 0.00 | 0.00 | 0.00 | 57 | 1018.3 |
| 20260506095442 | 8 | 232 | 0.0 | 0.0 | 0.00 | 0.00 | 0.00 | 57 | 1018.3 |
| 20260506095040 | 8 | 315 | 0.0 | 0.0 | 0.00 | 0.00 | 0.00 | 57 | 1018.3 |
| 20260506094639 | 8 | 279 | 0.0 | 1.6 | 0.00 | 0.00 | 0.00 | 57 | 1018.3 |
| 20260506093839 | 8 | 274 | 0.0 | 0.0 | 0.00 | 0.00 | 0.00 | 57 | 1018.6 |
| 20260506092633 | 8 | 335 | 0.0 | 0.0 | 0.00 | 0.00 | 0.00 | 57 | 1018.5 |
| 20260506092233 | 8 | 353 | 0.0 | 0.0 | 0.00 | 0.00 | 0.00 | 57 | 1018.5 |
| 20260506091829 | 8 | 310 | 0.0 | 0.0 | 0.00 | 0.00 | 0.00 | 56 | 1018.4 |
| 20260506091428 | 8 | 279 | 0.0 | 0.0 | 0.00 | 0.00 | 0.00 | 56 | 1018.4 |
| 20260506090626 | 8 | 306 | 0.0 | 1.6 | 0.00 | 0.00 | 0.00 | 56 | 1018.6 |
| 20260506090225 | 8 | 312 | 0.0 | 0.0 | 0.00 | 0.00 | 0.00 | 56 | 1018.6 |
| 20260506085827 | 9 | 274 | 0.0 | 0.0 | 0.00 | 0.00 | 0.00 | 56 | 1018.5 |
| 20260506085423 | 9 | 279 | 0.0 | 0.0 | 0.00 | 0.00 | 0.00 | 56 | 1018.6 |
| 20260506085021 | 9 | 274 | 0.0 | 0.0 | 0.00 | 0.00 | 0.00 | 56 | 1018.6 |
| 20260506084620 | 9 | 283 | 0.0 | 0.0 | 0.00 | 0.00 | 0.00 | 56 | 1018.7 |
| 20260506084218 | 9 | 283 | 0.0 | 0.0 | 0.00 | 0.00 | 0.00 | 56 | 1018.7 |
| 20260506083817 | 9 | 234 | 0.0 | 1.6 | 0.00 | 0.00 | 0.00 | 56 | 1018.8 |
| 20260506083416 | 9 | 301 | 0.0 | 0.0 | 0.00 | 0.00 | 0.00 | 56 | 1018.8 |
| 20260506083014 | 9 | 310 | 0.0 | 0.0 | 0.00 | 0.00 | 0.00 | 56 | 1018.9 |
| 20260506082613 | 9 | 310 | 0.0 | 1.6 | 0.00 | 0.00 | 0.00 | 56 | 1018.8 |
| 20260506081410 | 9 | 233 | 0.0 | 1.6 | 0.00 | 0.00 | 0.00 | 56 | 1018.8 |
| 20260506080205 | 9 | 274 | 0.0 | 0.0 | 0.00 | 0.00 | 0.00 | 56 | 1018.8 |
| 20260506073358 | 9 | 270 | 0.0 | 0.0 | 0.00 | 0.00 | 0.00 | 55 | 1018.9 |
| 20260506072555 | 9 | 298 | 0.0 | 0.0 | 0.00 | 0.00 | 0.00 | 55 | 1018.9 |
| 20260506071751 | 10 | 270 | 0.0 | 0.0 | 0.00 | 0.00 | 0.00 | 55 | 1018.8 |
| 20260506071350 | 10 | 274 | 0.0 | 0.0 | 0.00 | 0.00 | 0.00 | 55 | 1018.7 |
| 20260506070949 | 10 | 306 | 0.0 | 0.0 | 0.00 | 0.00 | 0.00 | 55 | 1018.7 |
| 20260506070548 | 10 | 310 | 0.0 | 0.0 | 0.00 | 0.00 | 0.00 | 54 | 1018.7 |
| 20260506061331 | 11 | 283 | 0.0 | 1.6 | 0.00 | 0.00 | 0.00 | 53 | 1018.1 |
| 20260506060930 | 11 | 227 | 0.0 | 0.0 | 0.00 | 0.00 | 0.00 | 53 | 1018.2 |
| 20260506060127 | 11 | 135 | 0.0 | 1.6 | 0.00 | 0.00 | 0.00 | 53 | 1018.1 |
| 20260506051311 | 12 | 227 | 0.0 | 0.0 | 0.00 | 0.00 | 0.00 | 51 | 1017.8 |
| 20260506050910 | 12 | 225 | 0.0 | 0.0 | 0.00 | 0.00 | 0.00 | 51 | 1017.7 |
| 20260506044904 | 12 | 182 | 0.0 | 0.0 | 0.00 | 0.00 | 0.00 | 50 | 1017.5 |
| 20260506044503 | 12 | 182 | 0.0 | 0.0 | 0.00 | 0.00 | 0.00 | 50 | 1017.5 |
| 20260506044101 | 12 | 45 | 0.0 | 0.0 | 0.00 | 0.00 | 0.00 | 50 | 1017.5 |
| 20260506043700 | 12 | 45 | 0.0 | 1.6 | 0.00 | 0.00 | 0.00 | 49 | 1017.5 |
| 20260506043259 | 12 | 45 | 1.6 | 1.6 | 0.00 | 0.00 | 0.00 | 49 | 1017.3 |
| 20260506042857 | 13 | 85 | 0.0 | 0.0 | 0.00 | 0.00 | 0.00 | 49 | 1017.2 |
| 20260506042503 | 12 | 45 | 0.0 | 1.6 | 0.00 | 0.00 | 0.00 | 49 | 1017.2 |
| 20260506042057 | 13 | 42 | 0.0 | 1.6 | 0.00 | 0.00 | 0.00 | 49 | 1017.1 |
| 20260506041654 | 13 | 45 | 0.0 | 1.6 | 0.00 | 0.00 | 0.00 | 48 | 1017.1 |
| 20260506041253 | 13 | 135 | 0.0 | 1.6 | 0.00 | 0.00 | 0.00 | 48 | 1017.0 |
| 20260506040451 | 13 | 78 | 0.0 | 1.6 | 0.00 | 0.00 | 0.00 | 48 | 1016.9 |
| 20260506040048 | 13 | 346 | 0.0 | 0.0 | 0.00 | 0.00 | 0.00 | 48 | 1016.9 |
| 20260506035246 | 14 | 306 | 0.0 | 0.0 | 0.00 | 0.00 | 0.00 | 47 | 1016.8 |
| 20260506034956 | 14 | 274 | 0.0 | 1.6 | 0.00 | 0.00 | 0.00 | 47 | 1016.8 |
| 20260506034845 | 14 | 274 | 0.0 | 1.6 | 0.00 | 0.00 | 0.00 | 47 | 1016.8 |
| 20260506034444 | 14 | 135 | 1.6 | 3.2 | 0.00 | 0.00 | 0.00 | 47 | 1016.7 |
| 20260506032838 | 14 | 283 | 1.6 | 1.6 | 0.00 | 0.00 | 0.00 | 45 | 1016.6 |
| 20260506032036 | 14 | 83 | 3.2 | 3.2 | 0.00 | 0.00 | 0.00 | 45 | 1016.4 |
| 20260506031634 | 15 | 83 | 1.6 | 3.2 | 0.00 | 0.00 | 0.00 | 45 | 1016.3 |
| 20260506030833 | 15 | 27 | 1.6 | 1.6 | 0.00 | 0.00 | 0.00 | 44 | 1016.1 |
| 20260506030431 | 15 | 315 | 0.0 | 1.6 | 0.00 | 0.00 | 0.00 | 43 | 1016.1 |
| 20260506030032 | 15 | 277 | 0.0 | 4.8 | 0.00 | 0.00 | 0.00 | 43 | 1016.0 |
| 20260506025628 | 15 | 135 | 3.2 | 4.8 | 0.00 | 0.00 | 0.00 | 43 | 1016.0 |
| 20260506025226 | 15 | 135 | 3.2 | 4.8 | 0.00 | 0.00 | 0.00 | 42 | 1016.0 |
| 20260506024825 | 15 | 130 | 4.8 | 8.0 | 0.00 | 0.00 | 0.00 | 42 | 1015.9 |
| 20260506024424 | 15 | 108 | 4.8 | 9.7 | 0.00 | 0.00 | 0.00 | 42 | 1015.7 |
| 20260506024023 | 15 | 83 | 8.0 | 12.9 | 0.00 | 0.00 | 0.00 | 41 | 1015.8 |
| 20260506022824 | 16 | 135 | 1.6 | 4.8 | 0.00 | 0.00 | 0.00 | 41 | 1015.7 |
| 20260506022417 | 16 | 85 | 4.8 | 4.8 | 0.00 | 0.00 | 0.00 | 40 | 1015.5 |
| 20260506022020 | 16 | 135 | 4.8 | 8.0 | 0.00 | 0.00 | 0.00 | 40 | 1015.6 |
| 20260506021615 | 16 | 128 | 8.0 | 9.7 | 0.00 | 0.00 | 0.00 | 40 | 1015.4 |
| 20260506021214 | 16 | 85 | 8.0 | 8.0 | 0.00 | 0.00 | 0.00 | 40 | 1015.4 |
| 20260506020813 | 16 | 135 | 6.4 | 6.4 | 0.00 | 0.00 | 0.00 | 39 | 1015.3 |
| 20260506020411 | 16 | 87 | 4.8 | 8.0 | 0.00 | 0.00 | 0.00 | 39 | 1015.4 |
| 20260506015207 | 16 | 112 | 4.8 | 9.7 | 0.00 | 0.00 | 0.00 | 38 | 1015.3 |
| 20260506014806 | 17 | 135 | 6.4 | 6.4 | 0.00 | 0.00 | 0.00 | 38 | 1015.3 |
| 20260506014405 | 17 | 155 | 4.8 | 9.7 | 0.00 | 0.00 | 0.00 | 38 | 1015.3 |
| 20260506014003 | 17 | 114 | 6.4 | 11.3 | 0.00 | 0.00 | 0.00 | 37 | 1015.2 |
| 20260506013201 | 17 | 117 | 6.4 | 9.7 | 0.00 | 0.00 | 0.00 | 37 | 1015.1 |
| 20260506012359 | 18 | 110 | 6.4 | 9.7 | 0.00 | 0.00 | 0.00 | 37 | 1015.1 |
| 20260506011957 | 18 | 148 | 6.4 | 9.7 | 0.00 | 0.00 | 0.00 | 36 | 1015.1 |
| 20260506011556 | 18 | 123 | 1.6 | 9.7 | 0.00 | 0.00 | 0.00 | 36 | 1015.0 |
| 20260506011154 | 18 | 157 | 4.8 | 8.0 | 0.00 | 0.00 | 0.00 | 36 | 1015.1 |
| 20260506010753 | 18 | 144 | 6.4 | 11.3 | 0.00 | 0.00 | 0.00 | 36 | 1015.1 |
| 20260506005951 | 18 | 132 | 9.7 | 9.7 | 0.00 | 0.00 | 0.00 | 36 | 1015.1 |
| 20260506005550 | 18 | 123 | 4.8 | 11.3 | 0.00 | 0.00 | 0.00 | 35 | 1015.1 |
| 20260506004821 | 19 | 135 | 4.8 | 8.0 | 0.00 | 0.00 | 0.00 | 35 | 1015.0 |
| 20260506004747 | 19 | 135 | 4.8 | 8.0 | 0.00 | 0.00 | 0.00 | 35 | 1015.0 |
| 20260506003543 | 20 | 183 | 1.6 | 4.8 | 0.00 | 0.00 | 0.00 | 35 | 1014.9 |
| 20260506003142 | 20 | 213 | 3.2 | 6.4 | 0.00 | 0.00 | 0.00 | 35 | 1014.9 |
| 20260506002339 | 20 | 180 | 4.8 | 4.8 | 0.00 | 0.00 | 0.00 | 34 | 1014.9 |
| 20260506001135 | 20 | 185 | 1.6 | 8.0 | 0.00 | 0.00 | 0.00 | 34 | 1014.7 |
| 20260506000734 | 20 | 195 | 1.6 | 11.3 | 0.00 | 0.00 | 0.00 | 34 | 1014.7 |
| 20260505235931 | 20 | 135 | 1.6 | 9.7 | 0.00 | 0.00 | 0.00 | 33 | 1014.7 |
| 20260505235532 | 20 | 193 | 1.6 | 9.7 | 0.00 | 0.00 | 0.00 | 33 | 1014.7 |
| 20260505234728 | 20 | 184 | 1.6 | 4.8 | 0.00 | 0.00 | 0.00 | 33 | 1014.8 |
| 20260505233929 | 20 | 139 | 3.2 | 11.3 | 0.00 | 0.00 | 0.00 | 32 | 1014.8 |
| 20260505233123 | 20 | 171 | 9.7 | 9.7 | 0.00 | 0.00 | 0.00 | 32 | 1015.0 |
| 20260505232721 | 20 | 171 | 6.4 | 14.5 | 0.00 | 0.00 | 0.00 | 31 | 1014.8 |